Powrót do katalogu

SL-8 R/B

AktywnyLEO
NORAD 7443·ROCKET BODY·🇷🇺 Russia

Wystrzelony Sep 19, 1974 z Plesetsk Cosmodrome

Loading…

Następne Przeloty (najbliższe 24 godziny)

TLE

ŚwieżeSource: Space-Track

Epoka: Sep 14, 2026, 08:17 UTC

1 07443U 74072J   26257.34567738  .00000026  00000-0  36354-3 0  9995
2 07443  74.0388  16.2092 0131271 136.0956 252.1475 12.22828919320729

Śledź SL-8 R/B w czasie rzeczywistym z AllMySat

Download on the App Store